Powrót do katalogu

DELTA 1 DEB

AktywnySSO
NORAD 7082·DEBRIS·🇺🇸 United States

Wystrzelony Nov 6, 1973 z Vandenberg Space Force Base

Loading…

Następne Przeloty (najbliższe 24 godziny)

TLE

ŚwieżeSource: Space-Track

Epoka: Sep 14, 2026, 02:43 UTC

1 07082U 73086CA  26257.11357642  .00000382  00000-0  23979-2 0  9997
2 07082 101.7815 133.8779 0028474 104.6174  52.7451 12.61981293419985

Śledź DELTA 1 DEB w czasie rzeczywistym z AllMySat

Download on the App Store